Change the Weather History Date:

Tuesday, November 29, 2011

  Actual Average Record
Temperature  
Mean Temperature 47 °F -  
Max Temperature 51 °F 43 °F 57 °F (2003)
Min Temperature 43 °F 35 °F 28 °F (2002)
Degree Days  
Heating Degree Days 18    
Moisture  
Dew Point 43 °F    
Average Humidity 83    
Maximum Humidity 100    
Minimum Humidity 61    
Precipitation  
Precipitation 0.00 in - - ()
Sea Level Pressure  
Sea Level Pressure 30.24 in    
Wind  
Wind Speed 10 mph ()    
Max Wind Speed 20 mph    
Max Gust Speed 23 mph    
Visibility 7.2 miles    
Events      
Averages and records for this station are not official NWS values.
T = Trace of Precipitation, MM = Missing Value Source: Averaged Metar Reports

Daily Weather History Graph

Daily Weather History Graph

Search for Another Location

Airport or City:

Trip Planner

Search our weather history database for the weather conditions in past years. The results will help you decide how hot, cold, wet, or windy it might be!

Date:

Astronomy

Nov. 29, 2011 Rise Set
Actual Time 7:11 AM AST 4:24 PM AST
Civil Twilight 6:39 AM AST 4:56 PM AST
Nautical Twilight 6:03 AM AST 5:32 PM AST
Astronomical Twilight 5:29 AM AST 6:06 PM AST
Moon 10:52 AM AST (11/29) 9:16 PM AST (11/29)
Length of Visible Light 10h 16m
Length of Day
9h 12m
Waxing Crescent, 23% of the Moon is Illuminated
Nov 29
Waxing Crescent
Dec 2
First Quarter
Dec 10
Full
Dec 17
Last Quarter
Dec 24
New

Hourly Weather History & Observations

Time (AST) Temp. Windchill Dew Point Humidity Pressure Visibility Wind Dir Wind Speed Gust Speed Precip Events Conditions
12:00 AM 51.8 °F - 48.2 °F 88% 30.06 in 5.0 mi West 17.3 mph 23.0 mph N/A   Overcast
1:00 AM 51.8 °F - 48.2 °F 88% 30.09 in 5.0 mi West 19.6 mph - N/A   Overcast
2:00 AM 50 °F - 48 °F 89% 30.12 in 5 mi West 16.1 mph - -  
2:00 AM 50.0 °F - 48.2 °F 94% 30.12 in 5.0 mi West 16.1 mph 21.9 mph N/A   Mostly Cloudy
2:40 AM 50.0 °F - 48.2 °F 94% 30.14 in 3.5 mi WNW 19.6 mph - N/A   Mostly Cloudy
2:43 AM 48.2 °F - 44.6 °F 87% 30.14 in 4.0 mi NNW 19.6 mph - N/A   Overcast
3:24 AM 48.2 °F - 41.0 °F 76% 30.15 in 9.0 mi NNW 9.2 mph - N/A   Overcast
4:00 AM 46.4 °F 41.1 °F 39.2 °F 76% 30.17 in 9.0 mi NNW 11.5 mph - N/A   Overcast
4:17 AM 46.4 °F 41.9 °F 39.2 °F 76% 30.17 in 9.0 mi NNW 9.2 mph - N/A   Overcast
5:00 AM 46 °F - 38 °F 65% 30.19 in 9 mi North 11.5 mph - -  
5:00 AM 46.4 °F 41.1 °F 37.4 °F 71% 30.19 in 9.0 mi North 11.5 mph - N/A   Clear
6:00 AM 46.4 °F 40.4 °F 37.4 °F 71% 30.22 in 9.0 mi North 13.8 mph - N/A   Clear
7:00 AM 44.6 °F 39.7 °F 37.4 °F 76% 30.25 in 9.0 mi North 9.2 mph - N/A   Clear
8:00 AM 45 °F - 38 °F 70% 30.28 in 9 mi NNE 8.1 mph - -  
8:00 AM 44.6 °F 39.7 °F 39.2 °F 81% 30.28 in 9.0 mi NNE 9.2 mph - N/A   Clear
8:42 AM 46.4 °F 42.4 °F 39.2 °F 76% 30.27 in 2.5 mi NNE 8.1 mph - N/A   Clear
8:58 AM 46.4 °F - 39.2 °F 76% 30.28 in 9.0 mi NNE 2.3 mph - N/A   Clear
9:00 AM 46.4 °F 45.2 °F 39.2 °F 76% 30.29 in 9.0 mi North 3.5 mph - N/A   Clear
10:00 AM 46.4 °F 42.9 °F 39.2 °F 76% 30.30 in 9.0 mi NE 6.9 mph - N/A   Clear
11:00 AM 48 °F - 39 °F 61% 30.30 in 9 mi East 3.5 mph - -  
11:00 AM 48.2 °F - 39.2 °F 71% 30.30 in 9.0 mi ESE 3.5 mph - N/A   Clear
12:00 PM 48.2 °F - 39.2 °F 71% 30.28 in 9.0 mi ESE 6.9 mph - N/A   Clear
1:00 PM 48.2 °F - 41.0 °F 76% 30.27 in 9.0 mi SE 9.2 mph - N/A   Clear
2:00 PM 48 °F - 41 °F 70% 30.27 in 9 mi SSE 10.4 mph - -  
2:00 PM 48.2 °F - 41.0 °F 76% 30.27 in 9.0 mi SE 10.4 mph - N/A   Clear
3:00 PM 48.2 °F - 42.8 °F 82% 30.27 in 9.0 mi SSE 8.1 mph - N/A   Clear
4:00 PM 46.4 °F 41.5 °F 42.8 °F 87% 30.28 in 9.0 mi SE 10.4 mph - N/A   Clear
5:00 PM 46 °F - 43 °F 87% 30.28 in 9 mi SE 9.2 mph - -  
5:00 PM 46.4 °F 41.9 °F 42.8 °F 87% 30.28 in 9.0 mi SE 9.2 mph - N/A   Clear
6:00 PM 46.4 °F 42.9 °F 44.6 °F 93% 30.28 in 9.0 mi SSE 6.9 mph - N/A   Clear
7:00 PM 48.2 °F - 44.6 °F 87% 30.29 in 8.0 mi SE 8.1 mph - N/A   Partly Cloudy
8:00 PM 49 °F - 47 °F 90% 30.28 in 7 mi SE 6.9 mph - -   Overcast
8:00 PM 48.2 °F - 46.4 °F 93% 30.28 in 8.0 mi SE 6.9 mph - N/A   Overcast
9:00 PM 50.0 °F - 48.2 °F 94% 30.28 in 7.0 mi SSE 6.9 mph - N/A   Overcast
10:00 PM 50.0 °F - 48.2 °F 94% 30.26 in 5.0 mi SSE 5.8 mph - N/A   Mostly Cloudy
11:00 PM 51 °F - 50 °F 94% 30.25 in 5 mi South 8.1 mph - -  
11:00 PM 50.0 °F - 50.0 °F 100% 30.25 in 5.0 mi South 6.9 mph - N/A   Clear
11:32 PM 50.0 °F - 48.2 °F 94% 30.24 in 3.0 mi South 5.8 mph - N/A   Mostly Cloudy
11:33 PM 50.0 °F - 48.2 °F 94% 30.24 in 3.0 mi South 5.8 mph - N/A   Mostly Cloudy
11:44 PM 50.0 °F - 48.2 °F 94% 30.24 in 3.0 mi SSE 5.8 mph - N/A   Overcast
11:56 PM 50.0 °F - 48.2 °F 94% 30.24 in 3.0 mi South 5.8 mph - N/A   Scattered Clouds